N6OIM Weather Reports


time (UTC)temp
C
wind
direction
speed
KPH
gust
KPH
rain 1hr
cm
rain 24hr
cm
rain mn
cm
humidity
%
barometer
mb
20260505232832 20 121 0.0 0.0 0.00 2.11 0.00 62 1012.9
20260505232319 20 121 0.0 0.0 0.00 2.11 0.00 62 1012.9
20260505231827 20 119 0.0 0.0 0.00 2.11 0.00 61 1013.0
20260505231335 20 119 0.0 0.0 0.00 2.11 0.00 62 1012.9
20260505230823 20 117 0.0 0.0 0.00 2.11 0.00 61 1013.1
20260505230318 19 117 0.0 0.0 0.00 2.24 0.00 61 1013.1
20260505225827 20 117 0.0 0.0 0.00 2.24 0.00 61 1013.1
20260505225336 20 130 0.0 0.0 0.00 2.24 0.00 62 1013.0
20260505224826 20 130 0.0 0.0 0.00 2.24 0.00 61 1013.0
20260505224335 20 129 0.0 0.0 0.00 2.24 0.00 60 1013.0
20260505223824 20 138 0.0 0.0 0.00 2.24 0.00 60 1013.0
20260505223332 20 175 0.0 0.0 0.00 2.24 0.00 60 1013.1
20260505222821 20 178 0.0 0.0 0.00 2.24 0.00 60 1013.2
20260505222329 20 178 0.0 0.0 0.00 2.24 0.00 59 1013.3
20260505221823 20 178 0.0 0.0 0.00 2.24 0.00 59 1013.4
20260505221331 20 178 0.0 0.0 0.00 2.24 0.00 58 1013.5
20260505220821 20 178 0.0 0.0 0.00 2.24 0.00 60 1013.4
20260505220329 20 178 0.0 0.0 0.00 2.29 0.00 58 1013.5
20260505215818 20 178 0.0 0.0 0.00 2.29 0.00 59 1013.4
20260505215326 20 174 0.0 0.0 0.00 2.29 0.00 58 1013.4
20260505214814 20 175 0.0 0.0 0.00 2.29 0.00 60 1013.4
20260505214325 20 175 0.0 0.0 0.00 2.29 0.00 63 1013.5
20260505213834 20 172 0.0 0.0 0.00 2.29 0.00 61 1013.7
20260505213327 19 169 0.0 0.0 0.00 2.29 0.00 63 1013.7
20260505212820 19 167 0.0 0.0 0.00 2.29 0.00 64 1013.8
20260505212325 19 148 0.0 0.0 0.00 2.29 0.00 66 1013.7
20260505211833 19 114 0.0 0.0 0.00 2.29 0.00 66 1013.7
20260505211320 18 259 0.0 0.0 0.00 2.29 0.00 66 1013.8
20260505210831 18 257 0.0 0.0 0.00 2.29 0.00 67 1013.7
20260505210319 18 268 0.0 0.0 0.00 2.29 0.00 66 1013.8
20260505205829 18 206 0.0 0.0 0.00 2.29 0.00 67 1013.7
20260505205317 18 207 0.0 0.0 0.00 2.29 0.00 68 1013.7
20260505204831 18 207 0.0 0.0 0.00 2.29 0.00 69 1013.8
20260505204319 18 206 0.0 0.0 0.00 2.29 0.00 70 1013.8
20260505203828 18 207 0.0 0.0 0.00 2.29 0.00 71 1013.9
20260505203316 18 207 0.0 0.0 0.00 2.29 0.00 71 1013.9
20260505202829 17 207 0.0 0.0 0.00 2.29 0.00 71 1013.9
20260505202316 17 205 0.0 0.0 0.00 2.29 0.00 72 1013.7
20260505201826 17 205 0.0 0.0 0.00 2.29 0.00 71 1013.8
20260505201315 17 205 0.0 0.0 0.00 2.29 0.00 71 1014.0
20260505200827 17 205 0.0 0.0 0.00 2.29 0.00 71 1014.0
20260505200320 17 165 0.0 0.0 0.00 2.31 0.00 71 1014.0
20260505195830 17 165 0.0 0.0 0.00 2.31 0.00 72 1014.0
20260505195318 17 166 0.0 0.0 0.00 2.31 0.00 74 1014.1
20260505194826 17 164 0.0 0.0 0.00 2.31 0.00 75 1014.1
20260505194337 17 165 0.0 0.0 0.00 2.31 0.00 76 1014.2
20260505193824 16 165 0.0 0.0 0.00 2.31 0.00 76 1014.2
20260505193335 16 165 0.0 0.0 0.00 2.31 0.00 77 1014.1
20260505192824 16 155 0.0 0.0 0.00 2.31 0.00 79 1014.2
20260505192332 16 134 0.0 0.0 0.00 2.31 0.00 81 1014.3
20260505191824 16 134 0.0 0.0 0.00 2.31 0.00 82 1014.3
20260505191332 16 130 0.0 0.0 0.00 2.31 0.00 83 1014.3
20260505190825 15 128 0.0 0.0 0.00 2.31 0.00 85 1014.3
20260505190334 15 127 0.0 0.0 0.00 2.31 0.00 85 1014.3
20260505185824 15 128 0.0 0.0 0.00 2.31 0.00 87 1014.3
20260505185333 15 128 0.0 0.0 0.00 2.31 0.00 89 1014.2
20260505184822 15 128 0.0 0.0 0.00 2.31 0.00 89 1014.2
20260505184330 15 126 0.0 0.0 0.00 2.31 0.00 90 1014.2
20260505183822 15 125 0.0 0.0 0.00 2.31 0.00 91 1014.2
20260505183330 15 125 0.0 0.0 0.00 2.31 0.00 91 1014.1
20260505182819 14 126 0.0 0.0 0.00 2.31 0.00 92 1014.1
20260505182326 14 126 0.0 0.0 0.00 2.31 0.00 92 1014.1
20260505181835 14 125 0.0 0.0 0.00 2.31 0.00 92 1014.1
20260505181323 14 122 0.0 0.0 0.00 2.31 0.00 92 1014.1
20260505180832 13 122 0.0 0.0 0.00 2.31 0.00 92 1014.1
20260505180319 13 122 0.0 0.0 0.00 2.36 0.00 92 1014.1
20260505175828 13 122 0.0 0.0 0.00 2.36 0.00 92 1014.0
20260505175319 13 122 0.0 0.0 0.00 2.36 0.00 92 1014.0
20260505174828 13 122 0.0 0.0 0.00 2.36 0.00 92 1014.0
20260505174337 13 122 0.0 0.0 0.00 2.36 0.00 92 1014.0
20260505173824 13 122 0.0 0.0 0.00 2.36 0.00 92 1013.9
20260505173332 13 122 0.0 0.0 0.00 2.36 0.00 92 1013.9
20260505172822 13 122 0.0 0.0 0.00 2.36 0.00 92 1013.9
20260505172332 13 122 0.0 0.0 0.00 2.36 0.00 92 1013.8
20260505171820 13 122 0.0 0.0 0.00 2.36 0.00 92 1013.8
20260505171329 13 123 0.0 0.0 0.00 2.36 0.00 92 1014.0
20260505170821 13 123 0.0 0.0 0.00 2.36 0.00 92 1014.0
20260505170330 13 123 0.0 0.0 0.00 2.36 0.00 92 1013.9
20260505165823 13 123 0.0 0.0 0.00 2.36 0.00 92 1013.8
20260505165330 13 128 0.0 0.0 0.00 2.36 0.00 92 1013.9
20260505164819 13 128 0.0 0.0 0.00 2.36 0.00 92 1013.8
20260505164327 13 128 0.0 0.0 0.00 2.36 0.00 92 1013.9
20260505163835 13 128 0.0 0.0 0.00 2.36 0.00 92 1013.9
20260505163324 12 128 0.0 0.0 0.00 2.36 0.00 92 1013.9
20260505162833 12 128 0.0 0.0 0.00 2.36 0.00 92 1013.9
20260505162325 12 128 0.0 0.0 0.00 2.36 0.00 92 1013.8
20260505161813 12 139 0.0 0.0 0.00 2.36 0.00 92 1013.8
20260505161325 12 144 0.0 0.0 0.00 2.36 0.00 92 1013.7
20260505160834 12 144 0.0 0.0 0.00 2.36 0.00 92 1013.8
20260505153335 12 130 0.0 0.0 0.00 2.36 0.00 92 1013.6
20260505152823 12 131 0.0 0.0 0.00 2.36 0.00 92 1013.6
20260505152334 12 131 0.0 0.0 0.00 2.36 0.00 92 1013.6
20260505151823 12 130 0.0 0.0 0.00 2.36 0.00 92 1013.5
20260505151330 12 131 0.0 0.0 0.00 2.36 0.00 92 1013.6
20260505150819 12 130 0.0 0.0 0.00 2.36 0.00 92 1013.5
20260505150328 12 131 0.0 0.0 0.00 2.36 2.36 92 1013.4
20260505140321 12 133 0.0 0.0 0.00 2.36 2.36 92 1012.8
20260505124832 11 184 0.0 0.0 0.00 2.36 2.36 91 1012.6
20260505124319 11 184 0.0 0.0 0.00 2.36 2.36 91 1012.5
20260505123814 11 184 0.0 0.0 0.00 2.36 2.36 91 1012.5
20260505123325 11 184 0.0 0.0 0.00 2.36 2.36 91 1012.5
20260505122837 11 184 0.0 0.0 0.00 2.36 2.36 91 1012.3
20260505122324 11 183 0.0 0.0 0.00 2.36 2.36 91 1012.3
20260505121833 11 184 0.0 0.0 0.00 2.36 2.36 91 1012.3
20260505121320 11 184 0.0 0.0 0.00 2.36 2.36 91 1012.3
20260505120829 11 184 0.0 0.0 0.00 2.36 2.36 91 1012.3
20260505120336 11 183 0.0 0.0 0.00 2.36 2.36 91 1012.4
20260505115825 11 184 0.0 0.0 0.00 2.36 2.36 91 1012.5
20260505115336 11 184 0.0 0.0 0.00 2.36 2.36 91 1012.6
20260505114825 11 183 0.0 0.0 0.00 2.36 2.36 91 1012.6
20260505114331 11 184 0.0 0.0 0.00 2.36 2.36 91 1012.6
20260505113819 11 184 0.0 0.0 0.00 2.36 2.36 91 1012.6
20260505113327 11 184 0.0 0.0 0.00 2.36 2.36 91 1012.7
20260505112835 11 183 0.0 0.0 0.00 2.36 2.36 91 1012.8
20260505112322 11 184 0.0 0.0 0.00 2.36 2.36 91 1012.7
20260505111835 11 184 0.0 0.0 0.00 2.36 2.36 91 1012.6
20260505111323 11 184 0.0 0.0 0.00 2.36 2.36 91 1012.6
20260505110835 11 184 0.0 0.0 0.00 2.36 2.36 91 1012.5
20260505110323 11 184 0.0 0.0 0.00 2.36 2.36 91 1012.5
20260505101831 12 184 0.0 0.0 0.00 2.36 2.36 91 1012.5
20260505101320 12 185 0.0 0.0 0.00 2.36 2.36 91 1012.6
20260505100833 12 179 0.0 0.0 0.00 2.36 2.36 91 1012.6
20260505100320 12 179 0.0 0.0 0.00 2.36 2.36 91 1012.6
20260505095830 12 180 0.0 0.0 0.00 2.36 2.36 91 1012.7
20260505095318 12 179 0.0 0.0 0.00 2.36 2.36 91 1012.6
20260505094827 12 137 0.0 0.0 0.00 2.36 2.36 91 1012.6
20260505094320 12 123 0.0 0.0 0.00 2.36 2.36 91 1012.7
20260505093830 12 123 0.0 0.0 0.00 2.36 2.36 91 1012.8
20260505093319 12 123 0.0 0.0 0.00 2.36 2.36 91 1012.9
20260505092829 12 123 0.0 0.0 0.00 2.36 2.36 91 1012.9
20260505092317 12 123 0.0 0.0 0.00 2.36 2.36 91 1012.7
20260505091826 12 122 0.0 0.0 0.00 2.36 2.36 91 1012.9
20260505091334 12 123 0.0 0.0 0.00 2.36 2.36 91 1013.0
20260505090822 12 123 0.0 0.0 0.00 2.36 2.36 91 1013.0
20260505090334 12 122 0.0 0.0 0.00 2.36 2.36 91 1013.1
20260505085827 12 122 0.0 0.0 0.00 2.36 2.36 91 1013.1
20260505085334 12 123 0.0 0.0 0.00 2.36 2.36 91 1013.2
20260505084823 12 122 0.0 0.0 0.00 2.36 2.36 91 1013.3
20260505084330 12 123 0.0 0.0 0.00 2.36 2.36 91 1013.3
20260505083819 12 122 0.0 0.0 0.03 2.36 2.36 91 1013.2
20260505083327 12 122 0.0 0.0 0.05 2.36 2.36 91 1013.3
20260505082816 12 123 0.0 0.0 0.08 2.36 2.36 91 1013.3
20260505082327 12 122 0.0 0.0 0.08 2.36 2.36 91 1013.4
20260505081835 12 123 0.0 0.0 0.13 2.36 2.36 91 1013.4
20260505081327 12 123 0.0 0.0 0.13 2.36 2.36 91 1013.3
20260505080837 12 122 0.0 0.0 0.15 2.36 2.36 91 1013.2
20260505080326 12 123 0.0 0.0 0.18 2.36 2.36 91 1013.2
20260505075835 12 123 0.0 0.0 0.18 2.36 2.36 91 1013.1
20260505075322 12 122 0.0 0.0 0.18 2.36 2.36 91 1013.2
20260505074831 12 123 0.0 0.0 0.18 2.36 2.36 91 1013.2
20260505074320 12 123 0.0 0.0 0.20 2.36 2.36 91 1013.2
20260505073829 12 123 0.0 0.0 0.18 2.34 2.34 91 1013.3
20260505073317 12 123 0.0 0.0 0.18 2.31 2.31 91 1013.2
20260505072830 12 123 0.0 0.0 0.20 2.31 2.31 91 1013.4
20260505072318 12 122 0.0 0.0 0.18 2.29 2.29 91 1013.4
20260505071826 12 122 0.0 0.0 0.13 2.24 2.24 91 1013.5
20260505071319 12 123 0.0 0.0 0.15 2.24 2.24 91 1013.5
20260505070829 12 123 0.0 0.0 0.13 2.21 2.21 91 1013.3
20260505070317 12 122 0.0 0.0 0.13 2.18 2.18 91 1013.4
20260505065828 12 123 0.0 0.0 0.15 2.18 2.18 91 1013.4
20260505065336 12 122 0.0 0.0 0.20 2.18 2.18 91 1013.4
20260505064824 12 123 0.0 0.0 0.23 2.18 2.18 91 1013.4
20260505064335 12 123 0.0 0.0 0.25 2.18 2.18 91 1013.4
20260505063823 12 122 0.0 0.0 0.25 2.16 2.16 91 1013.4
20260505063334 12 123 0.0 0.0 0.30 2.13 2.13 91 1013.5
20260505062822 12 123 0.0 0.0 0.30 2.11 2.11 91 1013.4
20260505062331 12 122 0.0 0.0 0.33 2.11 2.11 91 1013.4
20260505061819 12 123 0.0 0.0 0.33 2.11 2.11 91 1013.4
20260505061331 12 123 0.0 0.0 0.30 2.08 2.08 91 1013.5
20260505060819 12 123 0.0 0.0 0.33 2.08 2.08 90 1013.4
20260505060329 12 123 0.0 0.0 0.30 2.06 2.06 90 1013.4
20260505055822 12 122 0.0 0.0 0.28 2.03 2.03 90 1013.3
20260505055334 12 123 0.0 0.0 0.25 2.01 2.01 90 1013.1
20260505054822 12 123 0.0 0.0 0.20 1.96 1.96 90 1013.5
20260505054335 12 123 0.0 0.0 0.18 1.93 1.93 90 1013.5
20260505053823 12 122 0.0 0.0 0.15 1.91 1.91 90 1013.4
20260505053331 12 123 0.0 0.0 0.08 1.83 1.83 90 1013.4
20260505052820 12 122 0.0 0.0 0.08 1.80 1.80 90 1013.5
20260505052328 12 123 0.0 0.0 0.08 1.78 1.78 90 1013.4
20260505051821 12 123 0.0 0.0 0.13 1.78 1.78 90 1013.3
20260505051329 12 122 0.0 0.0 0.15 1.78 1.78 90 1013.4
20260505050818 12 123 0.0 0.0 0.18 1.75 1.75 90 1013.4
20260505050326 12 123 0.0 0.0 0.23 1.75 1.75 90 1013.4
20260505041328 12 122 0.0 0.0 0.51 1.63 1.63 90 1013.5
20260505040821 12 123 0.0 0.0 0.51 1.57 1.57 90 1013.4
20260505040328 12 123 0.0 0.0 0.51 1.52 1.52 90 1013.4
20260505035817 12 123 0.0 0.0 0.48 1.47 1.47 90 1013.6
20260505035326 12 123 0.0 0.0 0.43 1.42 1.42 90 1013.6
20260505034820 12 123 0.0 0.0 0.43 1.40 1.40 90 1013.6
20260505034328 12 123 0.0 0.0 0.43 1.37 1.37 90 1013.5
20260505033817 12 123 0.0 0.0 0.38 1.32 1.32 90 1013.4
20260505033325 12 123 0.0 0.0 0.36 1.27 1.27 90 1013.4
20260505032833 12 122 0.0 0.0 0.33 1.24 1.24 90 1013.4
20260505032321 12 123 0.0 0.0 0.28 1.19 1.19 90 1013.4
20260505031829 12 122 0.0 0.0 0.25 1.14 1.14 90 1013.4
20260505031318 12 123 0.0 0.0 0.23 1.12 1.12 90 1013.5
20260505030827 12 122 0.0 0.0 0.20 1.07 1.07 90 1013.6
20260505030318 12 122 0.0 0.0 0.18 1.02 1.02 89 1013.6
20260505025827 12 122 0.0 0.0 0.18 0.99 0.99 89 1013.6
20260505025335 12 123 0.0 0.0 0.20 0.99 0.99 89 1013.5
20260505024824 12 123 0.0 0.0 0.20 0.97 0.97 89 1013.2
20260505024333 12 123 0.0 0.0 0.18 0.94 0.94 89 1013.0
20260505023821 12 123 0.0 0.0 0.20 0.94 0.94 89 1013.0
20260505023329 12 123 0.0 0.0 0.20 0.91 0.91 89 1012.8
20260505022819 12 123 0.0 0.0 0.23 0.91 0.91 89 1012.7
20260505022328 12 123 0.0 0.0 0.25 0.91 0.91 89 1012.6
20260505021822 12 123 0.0 0.0 0.25 0.89 0.89 89 1012.6
20260505021333 12 123 0.0 0.0 0.25 0.89 0.89 89 1012.6
20260505020822 13 122 0.0 0.0 0.23 0.86 0.86 89 1012.7
20260505020330 13 123 0.0 0.0 0.23 0.84 0.84 89 1012.9
20260505015820 13 123 0.0 0.0 0.20 0.81 0.81 89 1012.9
20260505015332 13 122 0.0 0.0 0.20 0.79 0.79 89 1012.8
20260505014822 13 123 0.0 0.0 0.20 0.76 0.76 89 1012.8
20260505014331 13 123 0.0 0.0 0.20 0.76 0.76 89 1012.8
20260505013823 13 123 0.0 0.0 0.20 0.74 0.74 89 1012.8
20260505013331 13 123 0.0 0.0 0.20 0.71 0.71 89 1012.8
20260505012820 13 123 0.0 0.0 0.18 0.69 0.69 89 1012.7
20260505012328 13 122 0.0 0.0 0.15 0.66 0.66 89 1012.7
20260505011816 13 123 0.0 0.0 0.15 0.64 0.64 89 1012.7
20260505011327 13 123 0.0 0.0 0.18 0.64 0.64 89 1012.6
20260505010816 13 123 0.0 0.0 0.18 0.64 0.64 89 1012.6
20260505010328 13 122 0.0 0.0 0.18 0.61 0.61 89 1012.8
20260505005819 13 123 0.0 0.0 0.18 0.61 0.61 88 1012.9
20260505005332 13 123 0.0 0.0 0.18 0.58 0.58 88 1013.0
20260505004821 13 122 0.0 0.0 0.18 0.58 0.58 88 1013.2
20260505004330 13 123 0.0 0.0 0.18 0.56 0.56 88 1013.3
20260505003820 13 123 0.0 0.0 0.15 0.53 0.53 88 1013.5
20260505003328 13 122 0.0 0.0 0.15 0.51 0.51 88 1013.3
20260505002837 13 123 0.0 0.0 0.18 0.51 0.51 88 1013.3
20260505001835 13 122 0.0 0.0 0.20 0.48 0.48 88 1013.3
20260505001323 13 123 0.0 0.0 0.18 0.46 0.46 88 1013.2
20260505000816 13 123 0.0 0.0 0.20 0.46 0.46 88 1013.3
20260505000327 13 111 0.0 0.0 0.20 0.43 0.43 88 1013.5
20260504235836 13 111 0.0 0.0 0.20 0.43 0.43 88 1013.6
20260504235324 13 105 0.0 0.0 0.20 0.41 0.41 88 1013.4
20260504234833 13 122 0.0 0.0 0.20 0.41 0.41 88 1013.4
20260504234322 13 122 0.0 0.0 0.18 0.38 0.38 88 1013.3
20260504233832 13 122 0.0 0.0 0.18 0.38 0.38 88 1013.2
20260504233320 13 122 0.0 0.0 0.18 0.36 0.36 87 1013.2